This is the latest recevied weather packets stored in our database for station/object KE8RXN. If no packets are shown the sender has not sent any weather packets the latest 10 day(s).
| Time | Temp. | Humidity | Pressure | Rain* | Wind** | Luminosity | Snow |
|---|---|---|---|---|---|---|---|
| 1777835752 | 13.89° C | 59% | 1013.8 hPa | 0 mm | - | 212 W/m² | - |
| 1777835449 | 13.89° C | 57% | 1013.9 hPa | 0 mm | - | 765 W/m² | - |
| 1777835145 | 13.89° C | 59% | 1013.8 hPa | 0 mm | - | 282 W/m² | - |
| 1777834843 | 14.44° C | 57% | 1013.8 hPa | 0 mm | - | 287 W/m² | - |
| 1777834538 | 14.44° C | 56% | 1013.7 hPa | 0 mm | - | 368 W/m² | - |
| 1777834233 | 15° C | 55% | 1013.9 hPa | 0 mm | - | 404 W/m² | - |
| 1777833929 | 15° C | 54% | 1013.7 hPa | 0 mm | - | 254 W/m² | - |
| 1777833626 | 15° C | 53% | 1013.8 hPa | 0 mm | - | 676 W/m² | - |
| 1777833323 | 15° C | 54% | 1013.7 hPa | 0 mm | - | 672 W/m² | - |
| 1777833020 | 14.44° C | 55% | 1013.9 hPa | 0 mm | - | 671 W/m² | - |
| 1777832718 | 14.44° C | 53% | 1014 hPa | 0 mm | - | 700 W/m² | - |
| 1777832416 | 15° C | 53% | 1013.8 hPa | 0 mm | - | 691 W/m² | - |
| 1777832113 | 15.56° C | 52% | 1013.9 hPa | 0 mm | - | 671 W/m² | - |
| 1777831808 | 15° C | 52% | 1014 hPa | 0 mm | - | 679 W/m² | - |
| 1777831506 | 14.44° C | 52% | 1014.2 hPa | 0 mm | - | 677 W/m² | - |
| 1777831203 | 15° C | 52% | 1014 hPa | 0 mm | - | 684 W/m² | - |
| 1777830901 | 14.44° C | 53% | 1014.1 hPa | 0 mm | - | 711 W/m² | - |
| 1777830597 | 14.44° C | 53% | 1014.4 hPa | 0 mm | - | 751 W/m² | - |
| 1777830295 | 14.44° C | 53% | 1014.3 hPa | 0 mm | - | 732 W/m² | - |
| 1777829990 | 15° C | 53% | 1014.3 hPa | 0 mm | - | 721 W/m² | - |
| 1777829686 | 15° C | 53% | 1014.2 hPa | 0 mm | - | 732 W/m² | - |
| 1777829383 | 15° C | 53% | 1014.3 hPa | 0 mm | - | 729 W/m² | - |
| 1777829081 | 14.44° C | 54% | 1014.2 hPa | 0 mm | - | 555 W/m² | - |
| 1777828777 | 13.89° C | 54% | 1014.5 hPa | 0 mm | - | 198 W/m² | - |
| 1777828474 | 13.33° C | 56% | 1014.6 hPa | 0 mm | - | 389 W/m² | - |
* Rain latest hour (hover to see other rain measurements)
** Current wind speed in m/s (hover to see current wind gust speed)